Location: Buckland
(65.9785°N, 161.1281°W)
Time: 22:25:38
(UTC+00:00)

Vanguard 2 Rocket - Visible Passes

Search period start: 25 November 2020 00:00
Search period end: 05 December 2020 00:00
Orbit: 554 x 3326 km, 32.9° (Epoch: 25 November)

Date Brightness Start Highest point End Pass type
(mag) Time Alt. Az. Time Alt. Az. Time Alt. Az.
27 Nov 11.7 19:02:51 10° S 19:08:45 12° SSE 19:14:10 10° SE visible
28 Nov 11.7 18:05:04 10° SSE 18:08:55 11° SSE 18:12:36 10° SE visible
30 Nov 11.5 18:12:56 10° S 18:20:59 14° SSE 18:28:28 10° SE visible
01 Dec 11.5 17:14:55 10° S 17:21:03 12° SSE 17:26:57 10° SE visible
02 Dec 11.4 18:23:03 10° SSW 18:33:03 16° SSE 18:42:20 10° SE visible
03 Dec 11.3 17:24:00 10° S 17:32:59 15° SSE 17:41:41 10° SE visible
04 Dec 11.3 16:26:14 10° S 16:33:02 13° SSE 16:39:49 10° SE visible
04 Dec 11.2 18:34:10 10° SSW 18:45:06 18° S 18:55:24 10° SE visible
